Time,TemperatureF,DewpointF,PressureIn,WindDirection,WindDirectionDegrees,WindSpeedMPH,WindSpeedGustMPH,Humidity,HourlyPrecipIn,Conditions,Clouds,dailyrainin,SoftwareType,DateUTC
2013-02-11 15:04:00,45.5,29.4,30.08,WNW,293,15.0,19.0,53,0.00,,---,0.00,VWS V12.07,2013-02-11 21:04:00,
2013-02-11 15:53:00,45.7,28.6,30.09,NW,315,11.0,24.0,51,0.00,,---,0.00,VWS V12.07,2013-02-11 21:53:00,
2013-02-11 16:14:00,45.9,30.2,30.09,WNW,298,1.0,20.0,54,0.00,,---,0.00,VWS V12.07,2013-02-11 22:14:00,
2013-02-11 16:34:00,45.7,28.6,30.09,NW,305,17.0,21.0,51,0.00,,---,0.00,VWS V12.07,2013-02-11 22:34:00,
2013-02-11 16:55:00,45.3,28.7,30.10,NW,314,8.0,21.0,52,0.00,,---,0.00,VWS V12.07,2013-02-11 22:55:00,
2013-02-11 17:14:00,45.0,29.4,30.10,WNW,290,4.0,14.0,54,0.00,,---,0.00,VWS V12.07,2013-02-11 23:14:00,
2013-02-11 17:24:00,44.4,29.3,30.10,NW,304,9.0,14.0,55,0.00,,---,0.00,VWS V12.07,2013-02-11 23:24:00,
2013-02-11 17:45:00,43.2,29.0,30.11,WNW,301,7.0,12.0,57,0.00,,---,0.00,VWS V12.07,2013-02-11 23:45:00,
2013-02-11 17:54:00,42.9,29.2,30.11,WNW,289,5.0,12.0,58,0.00,,---,0.00,VWS V12.07,2013-02-11 23:54:00,
2013-02-11 18:14:00,42.2,28.9,30.11,West,271,5.0,9.0,59,0.00,,---,0.00,VWS V12.07,2013-02-12 00:14:00,
2013-02-11 18:34:00,41.5,28.7,30.11,WNW,295,3.0,6.0,60,0.00,,---,0.00,VWS V12.07,2013-02-12 00:34:00,
2013-02-11 19:04:00,40.2,29.0,30.13,NW,309,2.0,6.0,64,0.00,,---,0.00,VWS V12.07,2013-02-12 01:04:00,
2013-02-11 19:25:00,39.4,28.6,30.13,NW,309,2.0,6.0,65,0.00,,---,0.00,VWS V12.07,2013-02-12 01:25:00,
2013-02-11 19:45:00,39.1,28.3,30.14,NW,308,4.0,8.0,65,0.00,,---,0.00,VWS V12.07,2013-02-12 01:45:00,
2013-02-11 19:59:00,38.7,28.0,30.14,NW,312,4.0,8.0,65,0.00,,---,0.00,VWS V12.07,2013-02-12 01:59:00,
2013-02-11 20:05:00,38.6,27.9,30.14,NW,306,2.0,4.0,65,0.00,,---,0.00,VWS V12.07,2013-02-12 02:05:00,
2013-02-11 20:14:00,38.3,28.0,30.15,NW,304,2.0,4.0,66,0.00,,---,0.00,VWS V12.07,2013-02-12 02:14:00,
2013-02-11 20:45:00,36.9,27.3,30.15,NW,308,2.0,4.0,68,0.00,,---,0.00,VWS V12.07,2013-02-12 02:45:00,
2013-02-11 20:55:00,36.3,27.1,30.16,NW,317,0.0,4.0,69,0.00,,---,0.00,VWS V12.07,2013-02-12 02:55:00,
2013-02-11 21:15:00,34.3,26.9,30.17,NNW,337,0.0,1.0,74,0.00,,---,0.00,VWS V12.07,2013-02-12 03:15:00,
2013-02-11 21:25:00,33.8,27.0,30.17,North,349,0.0,3.0,76,0.00,,---,0.00,VWS V12.07,2013-02-12 03:25:00,
2013-02-11 21:34:00,33.9,27.1,30.17,North,1,0.0,3.0,76,0.00,,---,0.00,VWS V12.07,2013-02-12 03:34:00,
2013-02-11 21:55:00,33.3,26.9,30.18,North,354,1.0,4.0,77,0.00,,---,0.00,VWS V12.07,2013-02-12 03:55:00,
2013-02-11 22:05:00,32.7,26.6,30.18,NNW,327,0.0,0.0,78,0.00,,---,0.00,VWS V12.07,2013-02-12 04:05:00,
2013-02-11 22:14:00,32.3,26.8,30.18,NE,41,0.0,0.0,80,0.00,,---,0.00,VWS V12.07,2013-02-12 04:14:00,
2013-02-11 22:35:00,31.4,26.5,30.19,North,353,0.0,0.0,82,0.00,,---,0.00,VWS V12.07,2013-02-12 04:35:00,
2013-02-11 22:44:00,31.1,26.3,30.20,North,358,0.0,0.0,82,0.00,,---,0.00,VWS V12.07,2013-02-12 04:44:00,
2013-02-11 23:04:00,30.5,26.0,30.20,NNW,330,0.0,2.0,83,0.00,,---,0.00,VWS V12.07,2013-02-12 05:04:00,
2013-02-11 23:24:00,30.0,25.8,30.20,NW,317,0.0,2.0,84,0.00,,---,0.00,VWS V12.07,2013-02-12 05:24:00,